START_TIME,STEP,MOV.,H8,t_acc.,H43,t_acc.,M25,t_acc.,H9,t_acc.
1980-11-15 15:00:18.090 ,0,0,0.,12.0,0.,12.0,0.,12.0,0.,12.0
1980-11-15 15:00:30.090 ,0,0,0.,12.0,0.,12.0,0.,12.0,0.,12.0
1980-11-15 15:00:42.090 ,1,0,0.,12.0,0.,12.0,0.,12.0,0.,12.0
1980-11-15 15:00:54.090 ,1,0,0.,12.0,0.,12.0,0.,12.0,0.,12.0
1980-11-15 15:01:06.090 ,1,0,0.,12.0,0.,12.0,0.,12.0,0.,12.0
1980-11-15 15:01:18.090 ,1,0,0.,12.0,0.,12.0,0.,12.0,0.,12.0
1980-11-15 15:01:30.090 ,2,0,0.,12.0,0.,12.0,0.,12.0,0.,12.0
1980-11-15 15:01:42.090 ,2,0,0.,12.0,0.,12.0,0.,12.0,0.,12.0
1980-11-15 15:01:54.090 ,2,0,0.,12.0,0.,12.0,0.,12.0,0.,12.0
1980-11-15 15:02:06.090 ,2,0,0.,12.0,0.,12.0,0.,12.0,0.,12.0
1980-11-15 15:02:18.090 ,3,0,0.,12.0,0.,12.0,0.,12.0,0.,12.0
1980-11-15 15:02:30.090 ,3,0,0.,12.0,0.,12.0,0.,12.0,0.,12.0
1980-11-15 15:02:42.090 ,3,0,0.,12.0,0.,12.0,0.,12.0,0.,12.0
1980-11-15 15:02:54.090 ,3,0,0.,12.0,0.,12.0,0.,12.0,0.,12.0
1980-11-15 15:03:06.090 ,4,0,0.,12.0,0.,12.0,0.,12.0,0.,12.0
1980-11-15 15:03:18.090 ,4,0,0.,12.0,0.,12.0,0.,12.0,0.,12.0
1980-11-15 15:03:30.090 ,4,0,0.,12.0,0.,12.0,0.,12.0,0.,12.0
1980-11-15 15:03:42.090 ,4,0,0.,12.0,0.,12.0,0.,12.0,0.,12.0
1980-11-15 15:03:54.090 ,5,0,0.,12.0,0.,12.0,0.,12.0,0.,12.0
1980-11-15 15:04:06.090 ,5,0,0.,12.0,0.,12.0,0.,12.0,0.,12.0
1980-11-15 15:04:18.090 ,5,0,0.,12.0,0.,12.0,0.,12.0,0.,12.0
1980-11-15 15:04:30.090 ,5,0,0.,12.0,0.,12.0,0.,12.0,0.,12.0
1980-11-15 15:04:42.090 ,6,0,0.,12.0,0.,12.0,0.,12.0,0.,12.0
1980-11-15 15:04:54.090 ,6,0,0.,12.0,0.,12.0,0.,12.0,0.,12.0
1980-11-15 15:05:06.090 ,6,0,0.,12.0,0.,12.0,0.,12.0,0.,12.0
1980-11-15 15:05:18.090 ,6,0,0.,12.0,0.,12.0,0.,12.0,0.,12.0
1980-11-15 15:05:30.090 ,7,0,0.,12.0,0.,12.0,0.,12.0,0.,12.0
1980-11-15 15:05:42.090 ,7,0,0.,12.0,0.,12.0,0.,12.0,0.,12.0
1980-11-15 15:05:54.090 ,7,0,0.,12.0,0.,12.0,0.,12.0,0.,12.0
1980-11-15 15:06:06.090 ,7,0,0.,12.0,0.,12.0,0.,12.0,0.,12.0
1980-11-15 15:06:18.090 ,7,0,0.,12.0,0.,12.0,0.,12.0,0.,12.0
1980-11-15 15:06:30.090 ,7,0,0.,12.0,0.,12.0,0.,12.0,0.,12.0
1980-11-15 15:06:42.090 ,7,0,0.,12.0,0.,12.0,0.,12.0,0.,12.0
1980-11-15 15:06:54.090 ,7,0,0.,12.0,0.,12.0,0.,12.0,0.,12.0
1980-11-15 15:07:06.090 ,6,0,0.,12.0,0.,12.0,0.,12.0,0.,12.0
1980-11-15 15:07:18.090 ,6,0,0.,12.0,0.,12.0,0.,12.0,0.,12.0
1980-11-15 15:07:30.090 ,6,0,0.,12.0,0.,12.0,0.,12.0,0.,12.0
1980-11-15 15:07:42.090 ,6,0,0.,12.0,0.,12.0,0.,12.0,0.,12.0
1980-11-15 15:07:54.090 ,5,0,0.,12.0,0.,12.0,0.,12.0,0.,12.0
1980-11-15 15:08:06.090 ,5,0,0.,12.0,0.,12.0,0.,12.0,0.,12.0
1980-11-15 15:08:18.090 ,5,0,0.,12.0,0.,12.0,0.,12.0,0.,12.0
1980-11-15 15:08:30.090 ,5,0,0.,12.0,0.,12.0,0.,12.0,0.,12.0
1980-11-15 15:08:42.090 ,4,0,0.,12.0,0.,12.0,0.,12.0,0.,12.0
1980-11-15 15:08:54.090 ,4,0,0.,12.0,0.,12.0,0.,12.0,0.,12.0
1980-11-15 15:09:06.090 ,4,0,0.,12.0,0.,12.0,0.,12.0,0.,12.0
1980-11-15 15:09:18.090 ,4,0,0.,12.0,0.,12.0,0.,12.0,0.,12.0
1980-11-15 15:09:30.090 ,3,0,0.,12.0,0.,12.0,0.,12.0,0.,12.0
1980-11-15 15:09:42.090 ,3,0,0.,12.0,0.,12.0,0.,12.0,0.,12.0
1980-11-15 15:09:54.090 ,3,0,0.,12.0,0.,12.0,0.,12.0,0.,12.0
1980-11-15 15:10:06.090 ,3,0,0.,12.0,0.,12.0,0.,12.0,0.,12.0
1980-11-15 15:10:18.090 ,2,0,0.,12.0,0.,12.0,0.,12.0,0.,12.0
1980-11-15 15:10:30.090 ,2,0,0.,12.0,0.,12.0,0.,12.0,0.,12.0
1980-11-15 15:10:42.090 ,2,0,0.,12.0,0.,12.0,0.,12.0,0.,12.0
1980-11-15 15:10:54.090 ,2,0,0.,12.0,0.,12.0,0.,12.0,0.,12.0
1980-11-15 15:11:06.090 ,1,0,0.,12.0,0.,12.0,0.,12.0,0.,12.0
1980-11-15 15:11:18.090 ,1,0,0.,12.0,0.,12.0,0.,12.0,0.,12.0
1980-11-15 15:11:30.090 ,1,0,0.,12.0,0.,12.0,0.,12.0,0.,12.0
1980-11-15 15:11:42.090 ,1,0,0.,12.0,0.,12.0,0.,12.0,0.,12.0
1980-11-15 15:11:54.090 ,0,0,0.,12.0,0.,12.0,0.,12.0,0.,12.0
1980-11-15 15:12:06.090 ,0,0,0.,12.0,0.,12.0,0.,12.0,0.,12.0
1980-11-15 15:12:18.090 ,0,0,0.,12.0,0.,12.0,0.,12.0,0.,12.0
1980-11-15 15:12:30.090 ,0,0,0.,12.0,0.,12.0,0.,12.0,0.,12.0
1980-11-15 15:12:42.090 ,0,0,0.,12.0,0.,12.0,0.,12.0,0.,12.0
1980-11-15 15:12:54.090 ,0,0,0.,12.0,0.,12.0,0.,12.0,0.,12.0
1980-11-15 15:13:06.090 ,0,0,0.,12.0,0.,12.0,0.,12.0,0.,12.0
1980-11-15 15:13:18.090 ,0,0,0.,12.0,0.,12.0,0.,12.0,0.,12.0
1980-11-15 15:13:30.090 ,1,0,0.,12.0,0.,12.0,0.,12.0,0.,12.0
1980-11-15 15:13:42.090 ,1,0,0.,12.0,0.,12.0,0.,12.0,0.,12.0
1980-11-15 15:13:54.090 ,1,0,0.,12.0,0.,12.0,0.,12.0,0.,12.0
1980-11-15 15:14:06.090 ,1,0,0.,12.0,0.,12.0,0.,12.0,0.,12.0
1980-11-15 15:14:18.090 ,2,0,0.,12.0,0.,12.0,0.,12.0,0.,12.0
1980-11-15 15:14:30.090 ,2,0,0.,12.0,0.,12.0,0.,12.0,0.,12.0
1980-11-15 15:14:42.090 ,2,0,0.,12.0,0.,12.0,0.,12.0,0.,12.0
1980-11-15 15:14:54.090 ,2,0,0.,12.0,0.,12.0,0.,12.0,0.,12.0
1980-11-15 15:15:06.090 ,3,0,0.,12.0,0.,12.0,0.,12.0,0.,12.0
1980-11-15 15:15:18.090 ,3,0,0.,12.0,0.,12.0,0.,12.0,0.,12.0
1980-11-15 15:15:30.090 ,3,0,0.,12.0,0.,12.0,0.,12.0,0.,12.0
1980-11-15 15:15:42.090 ,3,0,0.,12.0,0.,12.0,0.,12.0,0.,12.0
1980-11-15 15:15:54.090 ,4,0,0.,12.0,0.,12.0,0.,12.0,0.,12.0
1980-11-15 15:16:06.090 ,4,0,0.,12.0,0.,12.0,0.,12.0,0.,12.0
1980-11-15 15:16:18.090 ,4,0,0.,12.0,0.,12.0,0.,12.0,0.,12.0
1980-11-15 15:16:30.090 ,4,0,0.,12.0,0.,12.0,0.,12.0,0.,12.0
1980-11-15 15:16:42.090 ,5,0,0.,12.0,0.,12.0,0.,12.0,0.,12.0
1980-11-15 15:16:54.090 ,5,0,0.,12.0,0.,12.0,0.,12.0,0.,12.0
1980-11-15 15:17:06.090 ,5,0,0.,12.0,0.,12.0,0.,12.0,0.,12.0
1980-11-15 15:17:18.090 ,5,0,0.,12.0,0.,12.0,0.,12.0,0.,12.0
1980-11-15 15:17:30.090 ,6,0,0.,12.0,0.,12.0,0.,12.0,0.,12.0
1980-11-15 15:17:42.090 ,6,0,0.,12.0,0.,12.0,0.,12.0,0.,12.0
1980-11-15 15:17:54.090 ,6,0,0.,12.0,0.,12.0,0.,12.0,0.,12.0
1980-11-15 15:18:06.090 ,6,0,0.,12.0,0.,12.0,0.,12.0,0.,12.0
1980-11-15 15:18:18.090 ,7,0,0.,12.0,0.,12.0,0.,12.0,0.,12.0
1980-11-15 15:18:30.090 ,7,0,0.,12.0,0.,12.0,0.,12.0,0.,12.0
1980-11-15 15:18:42.090 ,7,0,0.,12.0,0.,12.0,0.,12.0,0.,12.0
1980-11-15 15:18:54.090 ,7,0,0.,12.0,0.,12.0,0.,12.0,0.,12.0
1980-11-15 15:19:06.090 ,7,0,0.,12.0,0.,12.0,0.,12.0,0.,12.0
1980-11-15 15:19:18.090 ,7,0,0.,12.0,0.,12.0,0.,12.0,0.,12.0
1980-11-15 15:19:30.090 ,7,0,0.,12.0,0.,12.0,0.,12.0,0.,12.0
1980-11-15 15:19:42.090 ,7,0,0.,12.0,0.,12.0,0.,12.0,0.,12.0
1980-11-15 15:19:54.090 ,6,0,0.,12.0,0.,12.0,0.,12.0,0.,12.0
1980-11-15 15:20:06.090 ,6,0,0.,12.0,0.,12.0,0.,12.0,0.,12.0
1980-11-15 15:20:18.090 ,6,0,0.,12.0,0.,12.0,0.,12.0,0.,12.0
1980-11-15 15:20:30.090 ,6,0,0.,12.0,0.,12.0,0.,12.0,0.,12.0
1980-11-15 15:20:42.090 ,5,0,0.,12.0,0.,12.0,0.,12.0,0.,12.0
1980-11-15 15:20:54.090 ,5,0,0.,12.0,0.,12.0,0.,12.0,0.,12.0
1980-11-15 15:21:06.090 ,5,0,0.,12.0,0.,12.0,0.,12.0,0.,12.0
1980-11-15 15:21:18.090 ,5,0,0.,12.0,0.,12.0,0.,12.0,0.,12.0
1980-11-15 15:21:30.090 ,4,0,0.,12.0,0.,12.0,0.,12.0,0.,12.0
1980-11-15 15:21:42.090 ,4,0,0.,12.0,0.,12.0,0.,12.0,0.,12.0
1980-11-15 15:21:54.090 ,4,0,0.,12.0,0.,12.0,0.,12.0,0.,12.0
1980-11-15 15:22:06.090 ,4,0,0.,12.0,0.,12.0,0.,12.0,0.,12.0
1980-11-15 15:22:18.090 ,3,0,0.,12.0,0.,12.0,0.,12.0,0.,12.0
1980-11-15 15:22:30.090 ,3,0,0.,12.0,0.,12.0,0.,12.0,0.,12.0
1980-11-15 15:22:42.090 ,3,0,0.,12.0,0.,12.0,0.,12.0,0.,12.0
1980-11-15 15:22:54.090 ,3,0,0.,12.0,0.,12.0,0.,12.0,0.,12.0
1980-11-15 15:23:06.090 ,2,0,0.,12.0,0.,12.0,0.,12.0,0.,12.0
1980-11-15 15:23:18.090 ,2,0,0.,12.0,0.,12.0,0.,12.0,0.,12.0
1980-11-15 15:23:30.090 ,2,0,0.,12.0,0.,12.0,0.,12.0,0.,12.0
1980-11-15 15:23:42.090 ,2,0,0.,12.0,0.,12.0,0.,12.0,0.,12.0
1980-11-15 15:23:54.090 ,1,0,0.,12.0,0.,12.0,0.,12.0,0.,12.0
1980-11-15 15:24:06.090 ,1,0,0.,12.0,0.,12.0,0.,12.0,0.,12.0
1980-11-15 15:24:18.090 ,1,0,0.,12.0,0.,12.0,0.,12.0,0.,12.0
1980-11-15 15:24:30.090 ,1,0,0.,12.0,0.,12.0,0.,12.0,0.,12.0
1980-11-15 15:24:42.090 ,0,0,0.,12.0,0.,12.0,0.,12.0,0.,12.0
1980-11-15 15:24:54.090 ,0,0,0.,12.0,0.,12.0,0.,12.0,0.,12.0
1980-11-15 15:25:06.090 ,0,0,0.,12.0,0.,12.0,0.,12.0,0.,12.0
1980-11-15 15:25:18.090 ,0,0,0.,12.0,0.,12.0,0.,12.0,0.,12.0
1980-11-15 15:25:30.090 ,0,0,0.,12.0,0.,12.0,0.,12.0,0.,12.0
1980-11-15 15:25:42.090 ,0,0,0.,12.0,0.,12.0,0.,12.0,0.,12.0
1980-11-15 15:25:54.090 ,0,0,0.,12.0,0.,12.0,0.,12.0,0.,12.0
1980-11-15 15:26:06.090 ,0,0,0.,12.0,0.,12.0,0.,12.0,0.,12.0
1980-11-15 15:26:18.090 ,1,0,0.,12.0,0.,12.0,0.,12.0,0.,12.0
1980-11-15 15:26:30.090 ,1,0,0.,12.0,0.,12.0,0.,12.0,0.,12.0
1980-11-15 15:26:42.090 ,1,0,0.,12.0,0.,12.0,0.,12.0,0.,12.0
1980-11-15 15:26:54.090 ,1,0,0.,12.0,0.,12.0,0.,12.0,0.,12.0
1980-11-15 15:27:06.090 ,2,0,0.,12.0,0.,12.0,0.,12.0,0.,12.0
1980-11-15 15:27:18.090 ,2,0,0.,12.0,0.,12.0,0.,12.0,0.,12.0
1980-11-15 15:27:30.090 ,2,0,0.,12.0,0.,12.0,0.,12.0,0.,12.0
1980-11-15 15:27:42.090 ,2,0,0.,12.0,0.,12.0,0.,12.0,0.,12.0
1980-11-15 15:27:54.090 ,3,0,0.,12.0,0.,12.0,0.,12.0,0.,12.0
1980-11-15 15:28:06.090 ,3,0,0.,12.0,0.,12.0,0.,12.0,0.,12.0
1980-11-15 15:28:18.090 ,3,0,0.,12.0,0.,12.0,0.,12.0,0.,12.0
1980-11-15 15:28:30.090 ,3,0,0.,12.0,0.,12.0,0.,12.0,0.,12.0
1980-11-15 15:28:42.090 ,4,0,0.,12.0,0.,12.0,0.,12.0,0.,12.0
1980-11-15 15:28:54.090 ,4,0,0.,12.0,0.,12.0,0.,12.0,0.,12.0
1980-11-15 15:29:06.090 ,4,0,0.,12.0,0.,12.0,0.,12.0,0.,12.0
1980-11-15 15:29:18.090 ,4,0,0.,12.0,0.,12.0,0.,12.0,0.,12.0
1980-11-15 15:29:30.090 ,5,0,0.,12.0,0.,12.0,0.,12.0,0.,12.0
1980-11-15 15:29:42.090 ,5,0,0.,12.0,0.,12.0,0.,12.0,0.,12.0
1980-11-15 15:29:54.090 ,5,0,0.,12.0,0.,12.0,0.,12.0,0.,12.0
1980-11-15 15:30:06.090 ,5,0,0.,12.0,0.,12.0,0.,12.0,0.,12.0
1980-11-15 15:30:18.090 ,6,0,0.,12.0,0.,12.0,0.,12.0,0.,12.0
1980-11-15 15:30:30.090 ,6,0,0.,12.0,0.,12.0,0.,12.0,0.,12.0
1980-11-15 15:30:42.090 ,6,0,0.,12.0,0.,12.0,0.,12.0,0.,12.0
1980-11-15 15:30:54.090 ,6,0,0.,12.0,0.,12.0,0.,12.0,0.,12.0
1980-11-15 15:31:06.090 ,7,0,0.,12.0,0.,12.0,0.,12.0,0.,12.0
1980-11-15 15:31:18.090 ,7,0,0.,12.0,0.,12.0,0.,12.0,0.,12.0
1980-11-15 15:31:30.090 ,7,0,0.,12.0,0.,12.0,0.,12.0,0.,12.0
1980-11-15 15:31:42.090 ,7,0,0.,12.0,0.,12.0,0.,12.0,0.,12.0
1980-11-15 15:31:54.090 ,7,0,0.,12.0,0.,12.0,0.,12.0,0.,12.0
1980-11-15 15:32:06.090 ,7,0,0.,12.0,0.,12.0,0.,12.0,0.,12.0
1980-11-15 15:32:18.090 ,7,0,0.,12.0,0.,12.0,0.,12.0,0.,12.0
1980-11-15 15:32:30.090 ,7,0,0.,12.0,0.,12.0,0.,12.0,0.,12.0
1980-11-15 15:32:42.090 ,6,0,0.,12.0,0.,12.0,0.,12.0,0.,12.0
1980-11-15 15:32:54.090 ,6,0,0.,12.0,0.,12.0,0.,12.0,0.,12.0
1980-11-15 15:33:06.090 ,6,0,0.,12.0,0.,12.0,0.,12.0,0.,12.0
1980-11-15 15:33:18.090 ,6,0,0.,12.0,0.,12.0,0.,12.0,0.,12.0
1980-11-15 15:33:30.090 ,5,0,0.,12.0,0.,12.0,0.,12.0,0.,12.0
1980-11-15 15:33:42.090 ,5,0,0.,12.0,0.,12.0,0.,12.0,0.,12.0
1980-11-15 15:33:54.090 ,5,0,0.,12.0,0.,12.0,0.,12.0,0.,12.0
1980-11-15 15:34:06.090 ,5,0,0.,12.0,0.,12.0,0.,12.0,0.,12.0
1980-11-15 15:34:18.090 ,4,0,0.,12.0,0.,12.0,0.,12.0,0.,12.0
1980-11-15 15:34:30.090 ,4,0,0.,12.0,0.,12.0,0.,12.0,0.,12.0
1980-11-15 15:34:42.090 ,4,0,0.,12.0,0.,12.0,0.,12.0,0.,12.0
1980-11-15 15:34:54.090 ,4,0,0.,12.0,0.,12.0,0.,12.0,0.,12.0
1980-11-15 15:35:06.090 ,3,0,0.,12.0,0.,12.0,0.,12.0,0.,12.0
1980-11-15 15:35:18.090 ,3,0,0.,12.0,0.,12.0,0.,12.0,0.,12.0
1980-11-15 15:35:30.090 ,3,0,0.,12.0,0.,12.0,0.,12.0,0.,12.0
1980-11-15 15:35:42.090 ,3,0,0.,12.0,0.,12.0,0.,12.0,0.,12.0
1980-11-15 15:35:54.090 ,2,0,0.,12.0,0.,12.0,0.,12.0,0.,12.0
1980-11-15 15:36:06.090 ,2,0,0.,12.0,0.,12.0,0.,12.0,0.,12.0
1980-11-15 15:36:18.090 ,2,0,0.,12.0,0.,12.0,0.,12.0,0.,12.0
1980-11-15 15:36:30.090 ,2,0,0.,12.0,0.,12.0,0.,12.0,0.,12.0
1980-11-15 15:36:42.090 ,1,0,0.,12.0,0.,12.0,0.,12.0,0.,12.0
1980-11-15 15:36:54.090 ,1,0,0.,12.0,0.,12.0,0.,12.0,0.,12.0
1980-11-15 15:37:06.090 ,0,0,0.,12.0,0.,12.0,0.,12.0,0.,12.0
1980-11-15 15:37:18.090 ,0,0,0.,12.0,0.,12.0,0.,12.0,0.,12.0
1980-11-15 15:38:20.490 ,0,0,0.,12.0,0.,12.0,0.,12.0,0.,12.0
1980-11-15 15:38:32.490 ,0,0,,0,,0,,0,,0
1980-11-15 15:38:42.090 ,0,0,,0,,0,,0,,0
1980-11-15 15:38:54.090 ,0,0,,0,,0,,0,,0
1980-11-15 15:51:44.490 ,0,0,,0,,0,,0,,0
1980-11-15 15:51:56.490 ,0,0,0.,12.0,0.,12.0,0.,12.0,0.,12.0
1980-11-15 15:51:54.090 ,1,0,0.,12.0,0.,12.0,0.,12.0,0.,12.0
1980-11-15 15:52:06.090 ,1,0,0.,12.0,0.,12.0,0.,12.0,0.,12.0
1980-11-15 15:52:18.090 ,1,0,0.,12.0,0.,12.0,0.,12.0,0.,12.0
1980-11-15 15:52:30.090 ,1,0,0.,12.0,0.,12.0,0.,12.0,0.,12.0
1980-11-15 15:52:42.090 ,2,0,0.,12.0,0.,12.0,0.,12.0,0.,12.0
1980-11-15 15:52:54.090 ,2,0,0.,12.0,0.,12.0,0.,12.0,0.,12.0
1980-11-15 15:53:06.090 ,2,0,0.,12.0,0.,12.0,0.,12.0,0.,12.0
1980-11-15 15:53:18.090 ,2,0,0.,12.0,0.,12.0,0.,12.0,0.,12.0
1980-11-15 15:53:30.090 ,3,0,0.,12.0,0.,12.0,0.,12.0,0.,12.0
1980-11-15 15:53:42.090 ,3,0,0.,12.0,0.,12.0,0.,12.0,0.,12.0
1980-11-15 15:53:54.090 ,3,0,0.,12.0,0.,12.0,0.,12.0,0.,12.0
1980-11-15 15:54:06.090 ,3,0,0.,12.0,0.,12.0,0.,12.0,0.,12.0
1980-11-15 15:54:18.090 ,4,0,0.,12.0,0.,12.0,0.,12.0,0.,12.0
1980-11-15 15:54:30.090 ,4,0,0.,12.0,0.,12.0,0.,12.0,0.,12.0
1980-11-15 15:54:42.090 ,4,0,0.,12.0,0.,12.0,0.,12.0,0.,12.0
1980-11-15 15:54:54.090 ,4,0,0.,12.0,0.,12.0,0.,12.0,0.,12.0
1980-11-15 15:55:06.090 ,5,0,0.,12.0,0.,12.0,0.,12.0,0.,12.0
1980-11-15 15:55:18.090 ,5,0,0.,12.0,0.,12.0,0.,12.0,0.,12.0
1980-11-15 15:55:30.090 ,5,0,0.,12.0,0.,12.0,0.,12.0,0.,12.0
1980-11-15 15:55:42.090 ,5,0,0.,12.0,0.,12.0,0.,12.0,0.,12.0
1980-11-15 15:55:54.090 ,6,0,0.,12.0,0.,12.0,0.,12.0,0.,12.0
1980-11-15 15:56:06.090 ,6,0,0.,12.0,0.,12.0,0.,12.0,0.,12.0
1980-11-15 15:56:18.090 ,6,0,0.,12.0,0.,12.0,0.,12.0,0.,12.0
1980-11-15 15:56:30.090 ,6,0,0.,12.0,0.,12.0,0.,12.0,0.,12.0
1980-11-15 15:56:42.090 ,7,0,0.,12.0,0.,12.0,0.,12.0,0.,12.0
1980-11-15 15:56:54.090 ,7,0,0.,12.0,0.,12.0,0.,12.0,0.,12.0
1980-11-15 15:57:06.090 ,7,0,0.,12.0,0.,12.0,0.,12.0,0.,12.0
1980-11-15 15:57:18.090 ,7,0,0.,12.0,0.,12.0,0.,12.0,0.,12.0
1980-11-15 15:57:30.090 ,7,0,0.,12.0,0.,12.0,0.,12.0,0.,12.0
1980-11-15 15:57:42.090 ,7,0,0.,12.0,0.,12.0,0.,12.0,0.,12.0
1980-11-15 15:57:54.090 ,7,0,0.,12.0,0.,12.0,0.,12.0,0.,12.0
1980-11-15 15:58:06.090 ,7,0,0.,12.0,0.,12.0,0.,12.0,0.,12.0
1980-11-15 15:58:18.090 ,6,0,0.,12.0,0.,12.0,0.,12.0,0.,12.0
1980-11-15 15:58:30.090 ,6,0,0.,12.0,0.,12.0,0.,12.0,0.,12.0
1980-11-15 15:58:42.090 ,6,0,0.,12.0,0.,12.0,0.,12.0,0.,12.0
1980-11-15 15:58:54.090 ,6,0,0.,12.0,0.,12.0,0.,12.0,0.,12.0
1980-11-15 15:59:06.090 ,5,0,0.,12.0,0.,12.0,0.,12.0,0.,12.0
1980-11-15 15:59:18.090 ,5,0,0.,12.0,0.,12.0,0.,12.0,0.,12.0
1980-11-15 15:59:30.090 ,5,0,0.,12.0,0.,12.0,0.,12.0,0.,12.0
1980-11-15 15:59:42.090 ,5,0,0.,12.0,0.,12.0,0.,12.0,0.,12.0
1980-11-15 15:59:54.090 ,4,0,0.,12.0,0.,12.0,0.,12.0,0.,12.0
1980-11-15 16:00:06.090 ,4,0,0.,12.0,0.,12.0,0.,12.0,0.,12.0
1980-11-15 16:00:18.090 ,0,0,0.,12.0,0.,12.0,0.,12.0,0.,12.0
1980-11-15 16:00:30.090 ,0,0,0.,12.0,0.,12.0,0.,12.0,0.,12.0
1980-11-15 16:03:23.490 ,0,0,,0,,0,,0,,0
1980-11-15 16:03:35.490 ,0,0,0.,12.0,0.,12.0,0.,12.0,0.,12.0
1980-11-15 16:03:30.090 ,0,0,0.,12.0,0.,12.0,0.,12.0,0.,12.0
1980-11-15 16:03:42.090 ,0,0,0.,12.0,0.,12.0,0.,12.0,0.,12.0
1980-11-15 16:03:54.090 ,0,0,0.,12.0,0.,12.0,0.,12.0,0.,12.0
1980-11-15 16:04:06.090 ,0,0,0.,12.0,0.,12.0,0.,12.0,0.,12.0
1980-11-15 16:04:18.090 ,0,0,0.,12.0,0.,12.0,0.,12.0,0.,12.0
1980-11-15 16:04:30.090 ,0,0,0.,12.0,0.,12.0,0.,12.0,0.,12.0
1980-11-15 16:04:42.090 ,1,0,0.,12.0,0.,12.0,0.,12.0,0.,12.0
1980-11-15 16:04:54.090 ,1,0,0.,12.0,0.,12.0,0.,12.0,0.,12.0
1980-11-15 16:05:06.090 ,1,0,0.,12.0,0.,12.0,0.,12.0,0.,12.0
1980-11-15 16:05:18.090 ,1,0,0.,12.0,0.,12.0,0.,12.0,0.,12.0
1980-11-15 16:05:30.090 ,2,0,0.,12.0,0.,12.0,0.,12.0,0.,12.0
1980-11-15 16:05:42.090 ,2,0,0.,12.0,0.,12.0,0.,12.0,0.,12.0
1980-11-15 16:05:54.090 ,2,0,0.,12.0,0.,12.0,0.,12.0,0.,12.0
1980-11-15 16:06:06.090 ,2,0,0.,12.0,0.,12.0,0.,12.0,0.,12.0
1980-11-15 16:06:18.090 ,3,0,0.,12.0,0.,12.0,0.,12.0,0.,12.0
1980-11-15 16:06:30.090 ,3,0,0.,12.0,0.,12.0,0.,12.0,0.,12.0
1980-11-15 16:06:42.090 ,3,0,0.,12.0,0.,12.0,0.,12.0,0.,12.0
1980-11-15 16:06:54.090 ,3,0,0.,12.0,0.,12.0,0.,12.0,0.,12.0
1980-11-15 16:07:06.090 ,4,0,0.,12.0,0.,12.0,0.,12.0,0.,12.0
1980-11-15 16:07:18.090 ,4,0,0.,12.0,0.,12.0,0.,12.0,0.,12.0
1980-11-15 16:07:30.090 ,4,0,0.,12.0,0.,12.0,0.,12.0,0.,12.0
1980-11-15 16:07:42.090 ,4,0,0.,12.0,0.,12.0,0.,12.0,0.,12.0
1980-11-15 16:07:54.090 ,5,0,0.,12.0,0.,12.0,0.,12.0,0.,12.0
1980-11-15 16:08:06.090 ,5,0,0.,12.0,0.,12.0,0.,12.0,0.,12.0
1980-11-15 16:08:18.090 ,5,0,0.,12.0,0.,12.0,0.,12.0,0.,12.0
1980-11-15 16:08:30.090 ,5,0,0.,12.0,0.,12.0,0.,12.0,0.,12.0
1980-11-15 16:08:42.090 ,6,0,0.,12.0,0.,12.0,0.,12.0,0.,12.0
1980-11-15 16:08:54.090 ,6,0,0.,12.0,0.,12.0,0.,12.0,0.,12.0
1980-11-15 16:09:06.090 ,6,0,0.,12.0,0.,12.0,0.,12.0,0.,12.0
1980-11-15 16:09:18.090 ,6,0,0.,12.0,0.,12.0,0.,12.0,0.,12.0
1980-11-15 16:09:30.090 ,7,0,0.,12.0,0.,12.0,0.,12.0,0.,12.0
1980-11-15 16:09:42.090 ,7,0,0.,12.0,0.,12.0,0.,12.0,0.,12.0
1980-11-15 16:09:54.090 ,7,0,0.,12.0,0.,12.0,0.,12.0,0.,12.0
1980-11-15 16:10:06.090 ,7,0,0.,12.0,0.,12.0,0.,12.0,0.,12.0
1980-11-15 16:10:18.090 ,7,0,0.,12.0,0.,12.0,0.,12.0,0.,12.0
1980-11-15 16:10:30.090 ,7,0,0.,12.0,0.,12.0,0.,12.0,0.,12.0
1980-11-15 16:10:42.090 ,7,0,0.,12.0,0.,12.0,0.,12.0,0.,12.0
1980-11-15 16:10:54.090 ,7,0,0.,12.0,0.,12.0,0.,12.0,0.,12.0
1980-11-15 16:11:06.090 ,6,0,0.,12.0,0.,12.0,0.,12.0,0.,12.0
1980-11-15 16:11:18.090 ,6,0,0.,12.0,0.,12.0,0.,12.0,0.,12.0
1980-11-15 16:11:30.090 ,6,0,0.,12.0,0.,12.0,0.,12.0,0.,12.0
1980-11-15 16:11:42.090 ,6,0,0.,12.0,0.,12.0,0.,12.0,0.,12.0
1980-11-15 16:11:54.090 ,5,0,0.,12.0,0.,12.0,0.,12.0,0.,12.0
1980-11-15 16:12:06.090 ,5,0,0.,12.0,0.,12.0,0.,12.0,0.,12.0
1980-11-15 16:12:18.090 ,5,0,0.,12.0,0.,12.0,0.,12.0,0.,12.0
1980-11-15 16:12:30.090 ,5,0,0.,12.0,0.,12.0,0.,12.0,0.,12.0
1980-11-15 16:12:42.090 ,4,0,0.,12.0,0.,12.0,0.,12.0,0.,12.0
1980-11-15 16:12:54.090 ,4,0,0.,12.0,0.,12.0,0.,12.0,0.,12.0
1980-11-15 16:13:06.090 ,4,0,0.,12.0,0.,12.0,0.,12.0,0.,12.0
1980-11-15 16:13:18.090 ,4,0,0.,12.0,0.,12.0,0.,12.0,0.,12.0
1980-11-15 16:13:30.090 ,3,0,0.,12.0,0.,12.0,0.,12.0,0.,12.0
1980-11-15 16:13:42.090 ,3,0,0.,12.0,0.,12.0,0.,12.0,0.,12.0
1980-11-15 16:13:54.090 ,3,0,0.,12.0,0.,12.0,0.,12.0,0.,12.0
1980-11-15 16:14:06.090 ,3,0,0.,12.0,0.,12.0,0.,12.0,0.,12.0
1980-11-15 16:15:06.090 ,0,0,0.,12.0,0.,12.0,0.,12.0,0.,12.0
1980-11-15 16:15:18.090 ,0,0,0.,12.0,0.,12.0,0.,12.0,0.,12.0
1980-11-15 16:15:30.090 ,0,0,0.,12.0,0.,12.0,0.,12.0,0.,12.0
1980-11-15 16:15:42.090 ,0,0,0.,12.0,0.,12.0,0.,12.0,0.,12.0
1980-11-15 16:15:54.090 ,0,0,0.,12.0,0.,12.0,0.,12.0,0.,12.0
1980-11-15 16:16:06.090 ,0,0,0.,12.0,0.,12.0,0.,12.0,0.,12.0
1980-11-15 16:16:18.090 ,0,0,0.,12.0,0.,12.0,0.,12.0,0.,12.0
1980-11-15 16:16:30.090 ,0,0,0.,12.0,0.,12.0,0.,12.0,0.,12.0
1980-11-15 16:16:42.090 ,0,0,0.,12.0,0.,12.0,0.,12.0,0.,12.0
1980-11-15 16:16:54.090 ,0,0,0.,12.0,0.,12.0,0.,12.0,0.,12.0
1980-11-15 16:17:06.090 ,0,0,0.,12.0,0.,12.0,0.,12.0,0.,12.0
1980-11-15 16:17:18.090 ,0,0,0.,12.0,0.,12.0,0.,12.0,0.,12.0
1980-11-15 16:17:30.090 ,1,0,0.,12.0,0.,12.0,0.,12.0,0.,12.0
1980-11-15 16:17:42.090 ,1,0,0.,12.0,0.,12.0,0.,12.0,0.,12.0
1980-11-15 16:17:54.090 ,1,0,0.,12.0,0.,12.0,0.,12.0,0.,12.0
1980-11-15 16:18:06.090 ,1,0,0.,12.0,0.,12.0,0.,12.0,0.,12.0
1980-11-15 16:18:18.090 ,2,0,0.,12.0,0.,12.0,0.,12.0,0.,12.0
1980-11-15 16:18:30.090 ,2,0,0.,12.0,0.,12.0,0.,12.0,0.,12.0
1980-11-15 16:18:42.090 ,2,0,0.,12.0,0.,12.0,0.,12.0,0.,12.0
1980-11-15 16:18:54.090 ,2,0,0.,12.0,0.,12.0,0.,12.0,0.,12.0
1980-11-15 16:19:06.090 ,3,0,0.,12.0,0.,12.0,0.,12.0,0.,12.0
1980-11-15 16:19:18.090 ,3,0,0.,12.0,0.,12.0,0.,12.0,0.,12.0
1980-11-15 16:19:30.090 ,3,0,0.,12.0,0.,12.0,0.,12.0,0.,12.0
1980-11-15 16:19:42.090 ,3,0,0.,12.0,0.,12.0,0.,12.0,0.,12.0
1980-11-15 16:19:54.090 ,4,0,0.,12.0,0.,12.0,0.,12.0,0.,12.0
1980-11-15 16:20:06.090 ,4,0,0.,12.0,0.,12.0,0.,12.0,0.,12.0
1980-11-15 16:20:18.090 ,4,0,0.,12.0,0.,12.0,0.,12.0,0.,12.0
1980-11-15 16:20:30.090 ,4,0,0.,12.0,0.,12.0,0.,12.0,0.,12.0
1980-11-15 16:20:42.090 ,5,0,0.,12.0,0.,12.0,0.,12.0,0.,12.0
1980-11-15 16:20:54.090 ,5,0,0.,12.0,0.,12.0,0.,12.0,0.,12.0
1980-11-15 16:21:06.090 ,5,0,0.,12.0,0.,12.0,0.,12.0,0.,12.0
1980-11-15 16:21:18.090 ,5,0,0.,12.0,0.,12.0,0.,12.0,0.,12.0
1980-11-15 16:21:30.090 ,6,0,0.,12.0,0.,12.0,0.,12.0,0.,12.0
1980-11-15 16:21:42.090 ,6,0,0.,12.0,0.,12.0,0.,12.0,0.,12.0
1980-11-15 16:21:54.090 ,6,0,0.,12.0,0.,12.0,0.,12.0,0.,12.0
1980-11-15 16:22:06.090 ,6,0,0.,12.0,0.,12.0,0.,12.0,0.,12.0
1980-11-15 16:22:18.090 ,7,0,0.,12.0,0.,12.0,0.,12.0,0.,12.0
1980-11-15 16:22:30.090 ,7,0,0.,12.0,0.,12.0,0.,12.0,0.,12.0
1980-11-15 16:22:42.090 ,7,0,0.,12.0,0.,12.0,0.,12.0,0.,12.0
1980-11-15 16:22:54.090 ,7,0,0.,12.0,0.,12.0,0.,12.0,0.,12.0
1980-11-15 16:23:06.090 ,7,0,0.,12.0,0.,12.0,0.,12.0,0.,12.0
1980-11-15 16:23:18.090 ,7,0,0.,12.0,0.,12.0,0.,12.0,0.,12.0
1980-11-15 16:23:30.090 ,7,0,0.,12.0,0.,12.0,0.,12.0,0.,12.0
1980-11-15 16:23:42.090 ,7,0,0.,12.0,0.,12.0,0.,12.0,0.,12.0
1980-11-15 16:23:54.090 ,6,0,0.,12.0,0.,12.0,0.,12.0,0.,12.0
1980-11-15 16:24:06.090 ,6,0,0.,12.0,0.,12.0,0.,12.0,0.,12.0
1980-11-15 16:24:18.090 ,6,0,0.,12.0,0.,12.0,0.,12.0,0.,12.0
1980-11-15 16:24:30.090 ,6,0,0.,12.0,0.,12.0,0.,12.0,0.,12.0
1980-11-15 16:24:42.090 ,5,0,0.,12.0,0.,12.0,0.,12.0,0.,12.0
1980-11-15 16:24:54.090 ,5,0,0.,12.0,0.,12.0,0.,12.0,0.,12.0
1980-11-15 16:25:06.090 ,5,0,0.,12.0,0.,12.0,0.,12.0,0.,12.0
1980-11-15 16:25:18.090 ,5,0,0.,12.0,0.,12.0,0.,12.0,0.,12.0
1980-11-15 16:25:30.090 ,4,0,0.,12.0,0.,12.0,0.,12.0,0.,12.0
1980-11-15 16:25:42.090 ,4,0,0.,12.0,0.,12.0,0.,12.0,0.,12.0
1980-11-15 16:25:54.090 ,4,0,0.,12.0,0.,12.0,0.,12.0,0.,12.0
1980-11-15 16:26:06.090 ,4,0,0.,12.0,0.,12.0,0.,12.0,0.,12.0
1980-11-15 16:26:18.090 ,3,0,0.,12.0,0.,12.0,0.,12.0,0.,12.0
1980-11-15 16:26:30.090 ,3,0,1.,12.0,0.,12.0,0.,12.0,0.,12.0
1980-11-15 16:26:42.090 ,3,0,0.,12.0,0.,12.0,0.,12.0,0.,12.0
1980-11-15 16:26:54.090 ,3,0,0.,12.0,0.,12.0,0.,12.0,0.,12.0
1980-11-15 16:27:06.090 ,2,0,0.,12.0,0.,12.0,0.,12.0,0.,12.0
1980-11-15 16:27:18.090 ,2,0,0.,12.0,0.,12.0,0.,12.0,0.,12.0
1980-11-15 16:27:30.090 ,2,0,0.,12.0,0.,12.0,0.,12.0,0.,12.0
1980-11-15 16:27:42.090 ,2,0,0.,12.0,0.,12.0,0.,12.0,0.,12.0
1980-11-15 16:27:54.090 ,1,0,0.,12.0,0.,12.0,0.,12.0,0.,12.0
1980-11-15 16:28:06.090 ,1,0,0.,12.0,0.,12.0,0.,12.0,0.,12.0
1980-11-15 16:28:18.090 ,1,0,0.,12.0,0.,12.0,0.,12.0,0.,12.0
1980-11-15 16:28:30.090 ,1,0,0.,12.0,0.,12.0,0.,12.0,0.,12.0
1980-11-15 16:28:42.090 ,0,0,0.,12.0,0.,12.0,0.,12.0,0.,12.0
1980-11-15 16:28:54.090 ,0,0,0.,12.0,0.,12.0,0.,12.0,0.,12.0
1980-11-15 16:29:06.090 ,0,0,0.,12.0,0.,12.0,0.,12.0,0.,12.0
1980-11-15 16:29:18.090 ,0,0,0.,12.0,0.,12.0,0.,12.0,0.,12.0
1980-11-15 16:29:30.090 ,0,0,0.,12.0,0.,12.0,0.,12.0,0.,12.0
1980-11-15 16:29:42.090 ,0,0,0.,12.0,0.,12.0,0.,12.0,0.,12.0
1980-11-15 16:29:54.090 ,0,0,0.,12.0,0.,12.0,0.,12.0,0.,12.0
1980-11-15 16:30:06.090 ,0,0,0.,12.0,0.,12.0,0.,12.0,0.,12.0
1980-11-15 16:30:18.090 ,1,0,0.,12.0,0.,12.0,0.,12.0,0.,12.0
1980-11-15 16:30:30.090 ,1,0,0.,12.0,0.,12.0,0.,12.0,0.,12.0
1980-11-15 16:30:42.090 ,1,0,0.,12.0,0.,12.0,0.,12.0,0.,12.0
1980-11-15 16:30:54.090 ,1,0,0.,12.0,0.,12.0,0.,12.0,0.,12.0
1980-11-15 16:31:06.090 ,2,0,0.,12.0,0.,12.0,0.,12.0,0.,12.0
1980-11-15 16:31:18.090 ,2,0,0.,12.0,0.,12.0,0.,12.0,0.,12.0
1980-11-15 16:31:30.090 ,2,0,0.,12.0,0.,12.0,0.,12.0,0.,12.0
1980-11-15 16:31:42.090 ,2,0,0.,12.0,0.,12.0,0.,12.0,0.,12.0
1980-11-15 16:31:54.090 ,3,0,0.,12.0,0.,12.0,0.,12.0,0.,12.0
1980-11-15 16:32:06.090 ,3,0,0.,12.0,0.,12.0,0.,12.0,0.,12.0
1980-11-15 16:32:18.090 ,3,0,0.,12.0,0.,12.0,0.,12.0,0.,12.0
1980-11-15 16:32:30.090 ,3,0,0.,12.0,0.,12.0,0.,12.0,0.,12.0
1980-11-15 16:32:42.090 ,4,0,0.,12.0,0.,12.0,0.,12.0,0.,12.0
1980-11-15 16:32:54.090 ,4,0,0.,12.0,0.,12.0,0.,12.0,0.,12.0
1980-11-15 16:33:06.090 ,4,0,0.,12.0,0.,12.0,0.,12.0,0.,12.0
1980-11-15 16:33:18.090 ,4,0,0.,12.0,0.,12.0,0.,12.0,0.,12.0
1980-11-15 16:33:30.090 ,5,0,0.,12.0,0.,12.0,0.,12.0,0.,12.0
1980-11-15 16:33:42.090 ,5,0,0.,12.0,0.,12.0,0.,12.0,0.,12.0
1980-11-15 16:33:54.090 ,5,0,0.,12.0,0.,12.0,0.,12.0,0.,12.0